User: anonymous   Login
Location: Bandys
(35.4750°N, 81.0830°W)
Time: 17:05:22
(UTC-05:00)
Language:

DELTA 2 R/B (1) - Orbit

View from above orbital plane
View from above orbital plane
View from above satellite
View from above satellite

Ground track
Ground track

The orbit data is extracted from the following two-line orbital elements,

1 27665U 03005C   17018.50034388 -.00000061  00000-0  97439-5 0  9997
2 27665  39.5751 152.4333 0008977   7.1031  31.3566 14.28431866729524
Epoch (UTC): 18 January 2017 12:00:29
Eccentricity: 0.0008977
inclination: 39.5751°
perigee height: 790 km
apogee height: 803 km
right ascension of ascending node: 152.4333°
argument of perigee: 7.1031°
revolutions per day: 14.28431866
mean anomaly at epoch: 31.3566°
orbit number at epoch: 72952

The dashed part of the orbit path shows where the satellite is in the earth's shadow,  

DLR